Location: Córrego Montividiu
(13.2496°S, 48.8603°W)
Time: 18:26:32
(UTC+00:00)

Cosmos 1302 Rocket - Pass Details

Date: 11 March 2026
Orbit: 753 x 771 km, 74.0° (Epoch: 17 April)

Event Time Altitude Azimuth Distance (km) Brightness Sun altitude
Rises 22:28:23 0° 355° (N) 3,184 7.2 -14.5°
Reaches altitude 10° 22:30:46 10° 359° (N) 2,266 6.4 -15.1°
Maximum altitude 22:35:49 60° 78° (ENE) 861 3.9 -16.3°
Drops below altitude 10° 22:40:56 10° 157° (SSE) 2,295 6.3 -17.5°
Sets 22:43:20 0° 161° (SSE) 3,227 7.1 -18.1°
